Wind_Speed
4 5 4 4 3 3 3 3 2 2 3 3 3 3 3 4 4 4 3 3 3 3 3 4 3 4 5 5 5 6 6 6 7 7 8 8 8 9 9 10 10 10 10
5 4 4 4 3 2 2 2 2 3 4 4 4 5 5 5 4 4 4 5 5 4 4 4 4 4 5 5 5 6 6 7 8 9 9 9 9 9 9 10 10 11 11
5 4 3 3 2 2 4 4 5 4 5 5 5 5 5 5 4 5 5 6 6 6 6 5 5 5 6 6 7 8 8 9 9 10 10 10 10 10 10 11 12 12 12
5 5 4 4 5 3 4 6 5 5 5 5 5 5 5 5 6 6 6 7 7 7 7 6 6 6 7 8 8 8 9 10 10 11 10 10 10 11 11 12 12 14 13
7 6 6 6 6 6 6 6 6 6 6 6 6 6 6 7 7 7 7 7 7 7 7 7 7 8 8 9 9 10 10 10 10 10 11 11 11 11 12 12 13 13 14
8 8 7 7 6 6 7 7 6 6 6 6 7 7 8 8 8 7 7 8 8 8 8 9 8 9 9 10 10 11 12 11 11 11 11 11 12 12 12 13 13 14 14
8 8 8 7 7 6 7 8 7 8 8 8 7 8 8 8 8 8 8 9 9 9 9 10 9 10 10 11 12 12 13 12 12 12 12 13 13 13 13 13 14 14 15
8 8 8 7 7 7 8 8 8 8 8 8 8 8 8 8 8 9 9 9 9 10 10 10 10 10 11 12 12 13 14 14 13 13 14 14 14 14 14 13 14 14 15
8 8 8 8 8 8 8 8 8 8 8 9 9 9 9 9 9 9 10 10 10 10 11 11 11 11 12 12 13 13 14 14 14 14 14 14 14 15 15 15 15 16 17
8 9 8 8 8 9 9 8 9 10 10 10 10 11 11 11 11 11 11 11 11 12 12 12 12 13 13 13 14 14 14 15 15 15 15 15 15 16 16 16 17 17 18
9 9 9 9 10 10 10 10 10 11 11 11 11 12 12 12 12 12 12 12 12 12 13 13 13 14 14 14 15 15 16 15 15 16 16 17 17 17 18 18 18 19 19
10 10 10 11 11 11 11 11 11 12 12 12 12 12 13 13 13 14 13 14 14 13 14 14 14 15 15 16 17 17 17 17 17 17 18 18 18 19 19 19 20 20 19
11 11 11 12 12 12 12 12 12 13 13 13 13 13 13 14 14 15 15 15 15 15 15 15 15 16 16 17 17 18 19 19 19 19 19 19 19 19 20 20 20 20 20
11 11 12 13 13 14 13 13 14 13 14 14 14 14 14 15 15 15 16 16 17 17 17 16 17 17 17 18 19 19 19 19 20 20 20 20 20 20 20 20 20 20 20
11 12 13 13 14 14 15 15 15 14 15 15 15 15 16 16 16 16 17 17 18 18 18 18 18 18 19 19 19 20 20 20 21 21 21 21 21 20 20 20 21 21 21
12 13 14 15 15 15 15 15 15 16 16 16 16 16 16 16 16 17 17 18 19 19 19 19 20 20 20 21 21 20 20 20 20 21 21 21 21 21 21 21 22 22 22
14 14 14 15 16 16 16 16 16 16 17 17 17 17 17 17 17 18 19 19 20 20 20 21 21 21 21 21 21 22 21 21 21 21 21 21 21 22 22 22 23 23 23
16 16 16 17 17 18 17 17 17 17 18 18 18 18 18 19 19 19 20 20 21 21 21 21 21 22 22 21 21 22 22 22 22 22 21 22 22 22 23 23 23 23 23
18 18 19 19 19 19 19 19 18 18 18 19 19 20 20 20 20 20 21 21 21 22 22 22 21 22 22 22 22 21 21 21 22 23 23 23 23 23 23 24 23 23 24
20 20 21 21 21 20 20 21 20 20 20 20 20 21 21 22 22 22 22 22 23 23 23 23 22 22 23 23 23 22 22 23 23 23 23 23 23 23 24 24 24 23 24
23 23 23 23 23 22 22 22 22 22 21 21 22 22 22 22 23 23 23 24 24 24 24 24 23 23 23 24 24 24 24 24 24 24 24 24 24 24 24 24 23 23 23
25 25 25 24 23 23 23 23 23 23 23 23 23 23 23 23 24 23 24 24 24 24 23 23 23 23 24 24 24 24 24 24 25 25 25 24 25 25 24 24 24 24 24
25 25 25 25 25 25 25 25 24 24 24 24 24 24 24 24 24 24 24 24 24 24 24 24 23 24 24 24 24 24 25 25 25 25 25 24 24 25 25 24 24 24 24
27 27 26 26 26 26 26 26 26 26 26 25 25 25 25 25 25 25 25 25 25 25 25 25 25 25 25 25 25 25 25 25 25 25 26 25 24 24 24 23 23 24 24
28 28 28 28 28 27 27 27 28 27 27 26 26 27 27 27 27 27 27 26 26 26 26 26 26 26 26 26 26 25 25 26 25 25 25 25 25 24 24 23 23 24 25
30 30 30 30 29 28 28 28 29 29 28 28 27 28 28 29 29 29 28 28 27 27 27 27 26 26 26 26 26 26 26 26 26 25 25 25 25 25 24 24 24 25 26
Wind_Direction
40 32 35 32 32 41 42 39 23 20 35 32 32 26 28 21 20 19 12 0 342 328 320 316 303 304 300 290 288 291 291 285 285 288 287 284 280 274 271 269 264 265 267
26 23 21 18 17 21 31 29 20 19 23 20 22 17 12 7 3 356 357 354 348 335 319 315 313 317 311 304 298 294 295 295 294 294 293 289 287 279 271 268 268 265 267
28 24 22 18 28 43 42 31 33 26 17 8 4 3 359 353 350 348 346 344 341 336 331 322 317 317 317 309 303 299 301 299 299 301 298 291 285 279 278 272 269 266 265
31 30 21 15 19 25 15 13 15 9 3 359 357 352 350 348 341 338 334 333 335 337 333 326 320 319 319 315 313 311 305 304 303 299 295 291 287 280 281 276 273 271 269
36 36 26 25 26 19 11 9 12 7 358 350 347 346 343 340 335 332 328 326 326 329 328 324 319 315 314 313 312 311 312 308 306 299 293 290 290 284 282 280 278 274 272
27 29 27 27 22 15 9 4 2 359 355 351 348 345 340 333 327 326 324 320 319 320 320 317 315 313 310 309 309 312 313 311 308 307 298 292 294 289 285 284 281 279 278
24 23 18 16 12 7 1 356 349 348 347 344 343 342 337 334 330 328 324 320 316 315 315 315 312 308 310 310 310 311 312 311 308 306 306 301 299 295 289 287 283 283 283
19 16 15 7 5 1 356 351 346 345 345 342 341 338 334 331 330 328 324 319 316 314 314 313 308 308 307 305 307 309 309 309 307 304 303 303 301 298 294 290 288 287 286
10 5 3 360 358 356 353 349 345 343 338 334 333 334 330 329 327 323 320 319 317 314 313 311 306 305 306 306 308 306 308 309 304 302 301 301 300 298 294 290 289 287 287
0 0 356 354 353 351 350 349 344 337 333 331 328 326 325 326 324 321 319 317 314 313 313 312 309 305 308 308 306 308 309 304 301 300 299 297 296 295 294 292 291 289 287
352 351 352 352 348 347 347 343 338 334 332 329 326 325 323 322 320 319 318 317 315 313 312 311 308 306 307 307 306 306 306 305 304 302 301 296 294 293 292 290 288 288 286
346 345 343 342 339 339 339 337 334 333 331 327 325 323 321 319 318 317 316 315 314 313 311 310 308 306 306 305 304 304 304 303 302 302 302 300 296 292 290 289 289 288 288
341 339 339 336 334 333 333 332 331 329 327 324 322 321 320 318 317 315 314 314 314 313 311 308 307 306 305 305 305 303 303 303 302 300 301 303 301 297 293 291 290 289 288
337 336 336 335 333 332 331 329 328 326 325 322 319 317 317 316 315 314 312 312 311 310 310 308 305 305 304 304 304 305 304 302 303 301 299 299 298 297 294 292 290 289 289
332 334 331 331 330 330 330 328 327 323 324 323 320 318 317 316 315 313 311 311 311 311 309 308 305 304 303 303 303 304 303 301 302 302 300 297 295 294 293 290 289 289 290
328 326 326 327 327 328 329 328 326 323 323 321 321 318 316 315 315 313 312 311 311 310 310 310 305 304 303 302 301 302 302 302 302 302 302 297 293 293 292 290 289 289 290
324 322 322 323 325 325 324 322 321 321 320 318 318 317 316 314 315 314 314 313 312 310 308 307 305 304 302 300 299 300 300 300 300 301 301 300 298 296 294 292 291 290 290
317 318 319 320 321 322 320 319 318 317 317 317 315 315 315 314 313 312 313 314 312 310 308 306 305 303 302 300 299 299 298 298 299 299 298 298 298 297 295 294 294 292 292
312 314 316 316 317 318 318 317 317 315 315 315 313 312 311 310 310 310 311 311 310 309 308 307 305 302 301 299 298 298 298 298 299 300 300 299 298 297 297 296 294 294 293
308 311 313 313 314 315 316 317 316 314 313 313 312 312 311 309 309 308 309 309 309 309 307 306 306 305 303 300 298 299 299 298 299 299 299 299 299 298 298 297 295 294 293
306 308 309 311 312 313 313 314 314 313 312 312 310 309 311 310 310 309 310 311 310 309 307 305 305 305 305 302 300 299 298 298 299 298 298 299 299 299 298 296 295 294 293
303 305 306 307 309 310 309 309 311 311 309 309 310 310 310 310 311 310 311 310 309 309 307 306 305 305 305 304 301 299 299 298 299 298 298 298 299 299 298 298 296 295 294
302 302 304 306 306 305 305 306 306 307 306 305 306 307 306 307 308 309 309 309 308 308 307 306 305 304 304 304 302 301 299 299 300 299 297 297 298 298 298 297 296 295 294
301 301 301 303 304 304 303 302 303 303 304 305 305 305 305 304 305 305 305 306 305 306 306 305 304 303 303 303 303 301 300 299 299 299 298 297 297 297 298 297 295 294 293
298 300 301 300 300 300 301 300 300 301 301 302 302 303 303 303 302 302 301 302 303 303 303 303 302 302 302 302 303 303 300 300 300 299 299 298 298 298 298 298 296 293 293
296 297 299 299 299 299 299 299 298 298 300 301 301 301 302 302 300 299 299 299 300 301 301 301 301 301 301 301 301 301 301 301 301 300 299 299 300 300 299 299 298 297 295
Height
5883 5882 5882 5882 5881 5881 5881 5881 5881 5881 5881 5881 5881 5881 5880 5880 5880 5879 5879 5879 5878 5878 5878 5878 5877 5877 5877 5876 5876 5876 5876 5876 5876 5875 5875 5875 5875 5875 5875 5875 5875 5876 5876
5883 5883 5883 5882 5882 5881 5881 5882 5882 5882 5882 5881 5881 5881 5881 5880 5880 5879 5879 5879 5878 5878 5878 5877 5877 5876 5876 5875 5875 5874 5874 5874 5874 5873 5873 5873 5872 5872 5872 5872 5872 5873 5873
5884 5884 5883 5883 5883 5882 5882 5883 5883 5883 5882 5882 5881 5881 5880 5880 5880 5879 5879 5878 5878 5877 5876 5876 5875 5875 5874 5874 5873 5873 5872 5872 5871 5871 5871 5870 5870 5870 5869 5869 5869 5870 5870
5885 5885 5884 5884 5884 5884 5883 5883 5883 5883 5882 5882 5881 5881 5880 5880 5879 5879 5878 5878 5877 5876 5876 5875 5875 5874 5873 5873 5872 5871 5870 5870 5869 5868 5868 5867 5867 5867 5866 5866 5867 5867 5867
5887 5886 5885 5885 5885 5885 5884 5884 5883 5882 5882 5881 5881 5880 5879 5879 5878 5878 5877 5877 5876 5875 5874 5874 5873 5873 5872 5871 5871 5870 5868 5867 5866 5865 5865 5864 5864 5863 5863 5863 5863 5863 5863
5888 5887 5886 5886 5885 5885 5885 5884 5883 5882 5882 5881 5880 5879 5879 5878 5877 5877 5876 5875 5875 5874 5873 5872 5872 5871 5870 5869 5868 5867 5866 5865 5864 5863 5862 5861 5861 5860 5860 5860 5860 5860 5860
5889 5888 5887 5887 5886 5885 5885 5884 5883 5882 5881 5880 5879 5879 5878 5877 5876 5875 5874 5874 5873 5872 5871 5870 5869 5869 5868 5867 5866 5864 5863 5862 5861 5860 5859 5858 5858 5857 5857 5856 5856 5856 5856
5890 5889 5888 5887 5886 5885 5884 5883 5882 5881 5881 5880 5879 5878 5877 5877 5875 5874 5873 5872 5871 5870 5869 5868 5867 5866 5865 5864 5863 5862 5860 5859 5858 5857 5856 5855 5854 5853 5853 5853 5852 5852 5852
5890 5889 5888 5887 5886 5885 5884 5883 5882 5881 5880 5879 5878 5877 5876 5875 5874 5873 5871 5870 5869 5868 5867 5866 5864 5863 5861 5860 5859 5858 5857 5856 5854 5853 5852 5851 5850 5849 5849 5848 5848 5848 5848
5890 5889 5888 5887 5886 5885 5884 5883 5882 5880 5879 5878 5876 5875 5874 5873 5872 5871 5870 5868 5866 5865 5864 5863 5861 5860 5859 5857 5856 5854 5854 5853 5851 5850 5849 5847 5846 5845 5844 5844 5844 5843 5843
5891 5889 5888 5887 5886 5884 5883 5882 5881 5879 5878 5876 5875 5873 5872 5871 5869 5868 5867 5866 5864 5863 5861 5860 5859 5857 5856 5854 5852 5851 5850 5849 5847 5846 5845 5843 5842 5841 5840 5839 5839 5838 5837
5890 5889 5887 5886 5885 5884 5882 5881 5879 5878 5876 5874 5873 5871 5870 5869 5867 5866 5864 5863 5861 5860 5858 5857 5855 5854 5853 5851 5849 5848 5847 5845 5843 5842 5840 5839 5837 5836 5835 5834 5833 5833 5832
5890 5888 5887 5885 5884 5882 5880 5879 5877 5876 5874 5872 5871 5869 5868 5866 5864 5862 5861 5859 5858 5857 5855 5853 5852 5850 5848 5846 5845 5844 5842 5841 5839 5837 5835 5834 5832 5831 5829 5829 5828 5827 5826
5889 5887 5886 5884 5882 5880 5878 5877 5875 5874 5872 5870 5868 5866 5865 5863 5861 5859 5857 5856 5854 5853 5851 5850 5848 5846 5844 5843 5841 5839 5837 5836 5834 5832 5830 5828 5826 5825 5824 5823 5822 5821 5820
5888 5886 5885 5883 5881 5878 5876 5875 5873 5871 5869 5867 5865 5863 5862 5860 5858 5856 5854 5852 5851 5849 5847 5845 5843 5841 5840 5838 5836 5834 5832 5831 5828 5826 5824 5822 5821 5819 5818 5817 5816 5815 5814
5886 5885 5883 5881 5879 5876 5874 5872 5871 5868 5866 5864 5862 5860 5858 5856 5854 5852 5850 5848 5846 5844 5842 5840 5838 5836 5834 5832 5830 5829 5827 5825 5823 5821 5819 5817 5815 5813 5812 5811 5810 5809 5808
5884 5882 5880 5878 5876 5874 5872 5870 5868 5865 5863 5861 5859 5857 5855 5852 5850 5849 5846 5844 5842 5840 5838 5835 5833 5830 5828 5827 5825 5823 5821 5819 5817 5815 5813 5811 5809 5807 5806 5804 5803 5802 5801
5882 5880 5878 5876 5874 5871 5869 5867 5864 5862 5860 5858 5855 5853 5851 5849 5846 5844 5842 5840 5837 5834 5832 5830 5828 5826 5823 5821 5819 5817 5815 5813 5811 5809 5807 5805 5803 5801 5800 5798 5797 5795 5794
5879 5877 5875 5873 5870 5868 5866 5863 5861 5858 5856 5854 5851 5849 5847 5845 5842 5840 5837 5835 5832 5829 5827 5825 5822 5820 5817 5815 5813 5811 5809 5807 5805 5803 5801 5799 5797 5795 5793 5791 5790 5788 5787
5875 5873 5871 5869 5867 5864 5862 5860 5857 5855 5852 5849 5847 5845 5842 5840 5837 5835 5832 5830 5827 5824 5821 5819 5816 5814 5812 5809 5807 5805 5803 5801 5799 5797 5795 5793 5791 5789 5787 5785 5783 5781 5780
5871 5869 5867 5865 5862 5860 5858 5855 5853 5850 5848 5845 5843 5840 5837 5835 5832 5830 5827 5824 5821 5818 5816 5813 5810 5808 5806 5803 5801 5799 5797 5795 5793 5791 5789 5787 5785 5783 5781 5778 5776 5774 5772
5865 5863 5861 5859 5857 5855 5853 5850 5848 5845 5843 5840 5838 5835 5832 5830 5827 5824 5821 5818 5815 5812 5809 5807 5804 5802 5800 5797 5795 5792 5790 5789 5787 5785 5782 5780 5778 5776 5774 5771 5769 5767 5765
5860 5858 5856 5854 5852 5850 5847 5845 5842 5840 5837 5835 5832 5829 5827 5824 5821 5818 5815 5812 5809 5806 5803 5800 5798 5796 5793 5791 5789 5786 5784 5782 5780 5778 5775 5773 5771 5769 5766 5764 5762 5760 5758
5854 5852 5850 5848 5846 5843 5841 5839 5836 5833 5831 5828 5826 5823 5821 5818 5815 5812 5809 5806 5803 5800 5797 5794 5792 5789 5787 5785 5782 5780 5777 5775 5773 5771 5768 5766 5764 5762 5760 5757 5755 5753 5751
5847 5845 5843 5841 5839 5837 5834 5832 5829 5827 5824 5822 5819 5816 5814 5811 5808 5805 5802 5799 5797 5794 5790 5788 5785 5783 5780 5778 5776 5773 5771 5768 5766 5764 5761 5759 5757 5755 5753 5751 5748 5746 5744
5840 5838 5836 5834 5832 5830 5827 5824 5821 5819 5817 5815 5812 5809 5806 5803 5801 5798 5795 5792 5790 5787 5784 5781 5779 5776 5774 5772 5769 5767 5764 5761 5759 5757 5755 5752 5749 5747 5746 5744 5741 5739 5737